HAZ622 ZGHA-VHHH

Flight info

Callsign HAZ622
Flight time N/A
Altitude 29100
Route UBM9X UBMOG W615 IDAXI R473 NNX/K0867S1040 R473 WYN W18 NLG W23 ZUH/K0863S1070 R473 SIERA/N0466F351
Aircraft A321/M-SDE3FGHIRWY/LB1

Departure

Time 2026-04-29 06:20
Airport Changsha Huanghua International Airport (ZGHA)

Arrival

Time N/A
Airport Hong Kong International Airport (VHHH)
Time Latitude Longitude Altitude Speed Heading
2026-04-29 06:00 28.19205 113.21488 214 ft 0 kts 356°
2026-04-29 06:10 28.19202 113.21488 219 ft 3 kts 355°
2026-04-29 06:10 28.19176 113.21494 214 ft 4 kts 330°
2026-04-29 06:10 28.19157 113.21513 216 ft 4 kts 294°
2026-04-29 06:10 28.19151 113.21542 214 ft 4 kts 270°
2026-04-29 06:11 28.19152 113.21570 214 ft 4 kts 268°
2026-04-29 06:11 28.19154 113.21601 214 ft 4 kts 259°
2026-04-29 06:11 28.19161 113.21630 214 ft 4 kts 245°
2026-04-29 06:11 28.19175 113.21654 219 ft 4 kts 213°
2026-04-29 06:12 28.19190 113.21661 215 ft 0 kts 177°
2026-04-29 06:15 28.19179 113.21662 218 ft 4 kts 177°
2026-04-29 06:15 28.19141 113.21664 214 ft 6 kts 177°
2026-04-29 06:15 28.19095 113.21666 214 ft 7 kts 177°
2026-04-29 06:15 28.19036 113.21670 214 ft 11 kts 176°
2026-04-29 06:16 28.18955 113.21675 214 ft 12 kts 177°
2026-04-29 06:16 28.18885 113.21728 217 ft 16 kts 95°
2026-04-29 06:16 28.18810 113.21794 217 ft 15 kts 172°
2026-04-29 06:16 28.18702 113.21802 221 ft 16 kts 177°
2026-04-29 06:17 28.18592 113.21809 217 ft 16 kts 176°
2026-04-29 06:17 28.18475 113.21816 217 ft 17 kts 177°
2026-04-29 06:17 28.18352 113.21823 214 ft 18 kts 177°
2026-04-29 06:17 28.18218 113.21832 218 ft 20 kts 176°
2026-04-29 06:18 28.18080 113.21841 216 ft 20 kts 177°
2026-04-29 06:18 28.17942 113.21849 214 ft 18 kts 177°
2026-04-29 06:18 28.17818 113.21856 214 ft 19 kts 177°
2026-04-29 06:18 28.17741 113.21934 218 ft 3 kts 89°
2026-04-29 06:19 28.17741 113.21937 218 ft 2 kts 89°
2026-04-29 06:19 28.17744 113.21993 218 ft 12 kts 79°
2026-04-29 06:19 28.17830 113.22044 215 ft 20 kts 355°
2026-04-29 06:20 28.18177 113.22024 218 ft 84 kts 357°
2026-04-29 06:20 28.18973 113.21977 221 ft 142 kts 357°
2026-04-29 06:20 28.20067 113.21916 568 ft 159 kts 357°
2026-04-29 06:20 28.21161 113.21850 1246 ft 157 kts 359°
2026-04-29 06:21 28.22257 113.21780 1868 ft 159 kts 358°
2026-04-29 06:21 28.23409 113.21708 2260 ft 176 kts 359°
2026-04-29 06:21 28.24705 113.21629 2545 ft 195 kts 359°
2026-04-29 06:21 28.26087 113.21545 3039 ft 201 kts 360°
2026-04-29 06:22 28.27496 113.21456 3623 ft 204 kts
2026-04-29 06:22 28.28925 113.21366 4179 ft 208 kts
2026-04-29 06:22 28.30378 113.21274 4785 ft 209 kts
2026-04-29 06:22 28.31838 113.21181 5418 ft 210 kts
2026-04-29 06:23 28.33293 113.21088 6055 ft 209 kts
2026-04-29 06:23 28.34724 113.20997 6666 ft 208 kts
2026-04-29 06:23 28.36181 113.20918 7179 ft 210 kts
2026-04-29 06:23 28.37568 113.21374 7613 ft 212 kts 33°
2026-04-29 06:24 28.38518 113.22663 8014 ft 223 kts 66°
2026-04-29 06:24 28.38740 113.24441 8737 ft 231 kts 83°
2026-04-29 06:24 28.38763 113.26308 9401 ft 248 kts 94°
2026-04-29 06:24 28.38064 113.28202 9765 ft 277 kts 130°
2026-04-29 06:25 28.36437 113.29500 10183 ft 299 kts 157°
2026-04-29 06:25 28.34415 113.30359 10460 ft 322 kts 162°
2026-04-29 06:25 28.32228 113.31144 10655 ft 345 kts 165°
2026-04-29 06:25 28.29845 113.31947 10800 ft 368 kts 166°
2026-04-29 06:26 28.27314 113.32798 10917 ft 391 kts 165°
2026-04-29 06:26 28.24642 113.33722 11152 ft 408 kts 165°
2026-04-29 06:26 28.18655 113.35900 12484 ft 421 kts 165°
2026-04-29 06:26 28.07368 113.40086 15038 ft 434 kts 166°
2026-04-29 06:27 27.95670 113.44379 17204 ft 447 kts 166°
2026-04-29 06:27 27.83633 113.48791 19063 ft 461 kts 166°
2026-04-29 06:27 27.71296 113.53317 20906 ft 468 kts 167°
2026-04-29 06:27 27.58831 113.57850 22311 ft 474 kts 167°
2026-04-29 06:28 27.46185 113.62435 23526 ft 480 kts 167°
2026-04-29 06:28 27.33231 113.67132 23778 ft 500 kts 167°
2026-04-29 06:28 27.27470 113.69220 24033 ft 495 kts 167°
2026-04-29 06:28 27.24208 113.70391 24080 ft 485 kts 169°
2026-04-29 06:29 27.20985 113.71155 23772 ft 473 kts 177°
2026-04-29 06:29 27.17720 113.71662 23728 ft 473 kts 178°
2026-04-29 06:29 27.14455 113.72172 23747 ft 475 kts 177°
2026-04-29 06:29 27.11172 113.72691 23741 ft 476 kts 177°
2026-04-29 06:30 27.07887 113.73217 23745 ft 477 kts 177°
2026-04-29 06:30 27.01310 113.74275 23740 ft 477 kts 177°
2026-04-29 06:30 26.98022 113.74804 23741 ft 477 kts 177°
2026-04-29 06:31 26.94731 113.75332 23731 ft 477 kts 177°
2026-04-29 06:31 26.91447 113.75853 23735 ft 478 kts 177°
2026-04-29 06:31 26.88154 113.76374 23734 ft 478 kts 177°
2026-04-29 06:31 26.84859 113.76896 23708 ft 478 kts 177°
2026-04-29 06:32 26.81610 113.77410 23706 ft 478 kts 177°
2026-04-29 06:32 26.78316 113.77934 23703 ft 478 kts 177°
2026-04-29 06:32 26.75028 113.78468 23703 ft 479 kts 175°
2026-04-29 06:32 26.71761 113.79350 23706 ft 484 kts 169°
2026-04-29 06:33 26.68515 113.80375 23713 ft 484 kts 169°
2026-04-29 06:33 26.65269 113.81395 23709 ft 484 kts 169°
2026-04-29 06:33 26.62020 113.82411 23711 ft 484 kts 170°
2026-04-29 06:33 26.58775 113.83423 23710 ft 484 kts 169°
2026-04-29 06:34 26.55566 113.84424 23684 ft 484 kts 169°
2026-04-29 06:34 26.52313 113.85441 23690 ft 485 kts 169°
2026-04-29 06:34 26.49067 113.86454 23696 ft 485 kts 169°
2026-04-29 06:34 26.45811 113.87437 23701 ft 485 kts 170°
2026-04-29 06:35 26.42547 113.88385 23700 ft 484 kts 171°
2026-04-29 06:35 26.39281 113.89311 23702 ft 484 kts 171°
2026-04-29 06:35 26.36012 113.90232 23701 ft 484 kts 171°
2026-04-29 06:35 26.32744 113.91156 23702 ft 484 kts 171°
2026-04-29 06:36 26.29474 113.92088 23704 ft 485 kts 171°
2026-04-29 06:36 26.26209 113.93027 23704 ft 485 kts 171°
2026-04-29 06:36 26.22942 113.93974 23707 ft 485 kts 171°
2026-04-29 06:36 26.19667 113.94925 23698 ft 485 kts 171°
2026-04-29 06:37 26.16447 113.95863 23699 ft 485 kts 171°
2026-04-29 06:37 26.13181 113.96811 23698 ft 485 kts 171°
2026-04-29 06:37 26.09913 113.97756 23699 ft 485 kts 171°
2026-04-29 06:37 26.06641 113.98696 23698 ft 485 kts 171°
2026-04-29 06:38 26.03373 113.99631 23697 ft 485 kts 171°
2026-04-29 06:38 26.00103 114.00569 23700 ft 485 kts 171°
2026-04-29 06:38 25.96843 114.01523 23679 ft 485 kts 170°
2026-04-29 06:38 25.93578 114.02494 23683 ft 485 kts 170°
2026-04-29 06:39 25.90318 114.03473 23680 ft 486 kts 170°
2026-04-29 06:39 25.87052 114.04454 23684 ft 486 kts 170°
2026-04-29 06:39 25.83785 114.05434 23678 ft 486 kts 170°
2026-04-29 06:39 25.80519 114.06409 23681 ft 486 kts 170°
2026-04-29 06:40 25.77248 114.07381 23681 ft 486 kts 170°
2026-04-29 06:40 25.73984 114.08346 23682 ft 486 kts 170°
2026-04-29 06:40 25.70711 114.09310 23675 ft 487 kts 170°
2026-04-29 06:40 25.67435 114.10274 23659 ft 487 kts 170°
2026-04-29 06:41 25.64156 114.11242 23665 ft 488 kts 170°
2026-04-29 06:41 25.60876 114.12212 23661 ft 488 kts 170°
2026-04-29 06:41 25.57595 114.13184 23662 ft 488 kts 170°
2026-04-29 06:41 25.54351 114.14145 23666 ft 489 kts 170°
2026-04-29 06:42 25.51059 114.15116 23667 ft 489 kts 170°
2026-04-29 06:42 25.47774 114.16083 23667 ft 489 kts 170°
2026-04-29 06:42 25.44484 114.17050 23669 ft 489 kts 170°
2026-04-29 06:42 25.41191 114.18018 23672 ft 489 kts 170°
2026-04-29 06:43 25.37900 114.18988 23674 ft 490 kts 170°
2026-04-29 06:43 25.34612 114.19957 23653 ft 489 kts 170°
2026-04-29 06:43 25.31324 114.20927 23656 ft 489 kts 170°
2026-04-29 06:43 25.28038 114.21893 23657 ft 489 kts 171°
2026-04-29 06:44 25.24745 114.22862 23655 ft 489 kts 170°
2026-04-29 06:44 25.21450 114.23834 23653 ft 489 kts 170°
2026-04-29 06:44 25.19273 114.24475 23654 ft 489 kts 170°
2026-04-29 06:44 25.15985 114.25440 23659 ft 489 kts 170°
2026-04-29 06:45 25.12685 114.26316 23652 ft 485 kts 175°
2026-04-29 06:45 25.09347 114.26689 23655 ft 479 kts 184°
2026-04-29 06:45 25.06046 114.26516 23641 ft 473 kts 191°
2026-04-29 06:45 25.02821 114.25885 23645 ft 470 kts 195°
2026-04-29 06:46 24.99615 114.25181 23643 ft 470 kts 195°
2026-04-29 06:46 24.96408 114.24478 23643 ft 470 kts 195°
2026-04-29 06:46 24.93200 114.23778 23642 ft 470 kts 195°
2026-04-29 06:46 24.87586 114.22562 23638 ft 471 kts 195°
2026-04-29 06:47 24.74739 114.19767 23614 ft 471 kts 194°
2026-04-29 06:47 24.61884 114.16981 23620 ft 471 kts 194°
2026-04-29 06:47 24.49201 114.14244 23623 ft 471 kts 194°
2026-04-29 06:47 24.36312 114.11461 23615 ft 471 kts 194°
2026-04-29 06:48 24.23683 114.07861 23590 ft 469 kts 200°
2026-04-29 06:48 24.11116 114.03862 23596 ft 471 kts 198°
2026-04-29 06:48 23.98444 114.00055 23527 ft 472 kts 198°
2026-04-29 06:48 23.88889 113.97153 23567 ft 476 kts 199°
2026-04-29 06:49 23.85703 113.96187 23556 ft 473 kts 198°
2026-04-29 06:49 23.82537 113.95228 23552 ft 472 kts 198°
2026-04-29 06:49 23.79368 113.94271 23544 ft 472 kts 198°
2026-04-29 06:49 23.76197 113.93316 23544 ft 473 kts 198°
2026-04-29 06:50 23.73028 113.92360 23541 ft 473 kts 199°
2026-04-29 06:50 23.69853 113.91401 23541 ft 472 kts 198°
2026-04-29 06:50 23.66688 113.90445 23527 ft 473 kts 198°
2026-04-29 06:50 23.63517 113.89486 23526 ft 473 kts 198°
2026-04-29 06:51 23.60342 113.88526 23529 ft 473 kts 198°
2026-04-29 06:51 23.57164 113.87568 23525 ft 473 kts 198°
2026-04-29 06:51 23.53998 113.86618 23527 ft 472 kts 198°
2026-04-29 06:51 23.50832 113.85670 23533 ft 473 kts 198°
2026-04-29 06:52 23.47657 113.84716 23535 ft 473 kts 198°
2026-04-29 06:52 23.44511 113.83766 23527 ft 473 kts 198°
2026-04-29 06:52 23.41338 113.82807 23528 ft 473 kts 198°
2026-04-29 06:52 23.38163 113.81848 23528 ft 473 kts 198°
2026-04-29 06:53 23.34987 113.80889 23529 ft 473 kts 198°
2026-04-29 06:53 23.31813 113.79930 23528 ft 473 kts 198°
2026-04-29 06:53 23.28640 113.78973 23530 ft 473 kts 198°